This is the latest recevied weather packets stored in our database for station/object K1RFS. If no packets are shown the sender has not sent any weather packets the latest 10 day(s).
| Time | Temp. | Humidity | Pressure | Rain* | Wind** | Luminosity | Snow |
|---|---|---|---|---|---|---|---|
| 1777952392 | 15.56° C | 44% | 993.2 hPa | 0 mm | - | 0 W/m² | - |
| 1777952089 | 15.56° C | 43% | 993.2 hPa | 0 mm | - | 0 W/m² | - |
| 1777951787 | 15.56° C | 44% | 992.9 hPa | 0 mm | - | 0 W/m² | - |
| 1777951484 | 15.56° C | 44% | 992.9 hPa | 0 mm | - | 0 W/m² | - |
| 1777951180 | 15.56° C | 44% | 993.2 hPa | 0 mm | - | 0 W/m² | - |
| 1777950878 | 16.11° C | 44% | 992.8 hPa | 0 mm | - | 0 W/m² | - |
| 1777950575 | 16.11° C | 45% | 992.8 hPa | 0 mm | - | 0 W/m² | - |
| 1777950270 | 16.11° C | 45% | 992.8 hPa | 0 mm | - | 0 W/m² | - |
| 1777949966 | 16.11° C | 43% | 992.8 hPa | 0 mm | - | 0 W/m² | - |
| 1777949663 | 16.67° C | 42% | 992.9 hPa | 0 mm | - | 0 W/m² | - |
| 1777949362 | 16.67° C | 42% | 992.8 hPa | 0 mm | - | 0 W/m² | - |
| 1777949059 | 16.67° C | 41% | 992.5 hPa | 0 mm | - | 0 W/m² | - |
| 1777948756 | 16.67° C | 40% | 992.7 hPa | 0 mm | - | 0 W/m² | - |
| 1777948453 | 17.22° C | 40% | 992.4 hPa | 0 mm | - | 1 W/m² | - |
| 1777948150 | 17.22° C | 39% | 992.6 hPa | 0 mm | - | 2 W/m² | - |
| 1777947848 | 17.22° C | 39% | 992.6 hPa | 0 mm | - | 3 W/m² | - |
| 1777947545 | 17.22° C | 39% | 992.6 hPa | 0 mm | - | 4 W/m² | - |
| 1777947241 | 17.22° C | 39% | 992.5 hPa | 0 mm | - | 5 W/m² | - |
| 1777946937 | 17.78° C | 39% | 992.5 hPa | 0 mm | - | 8 W/m² | - |
| 1777946633 | 17.78° C | 39% | 992.1 hPa | 0 mm | - | 13 W/m² | - |
| 1777946330 | 17.78° C | 39% | 992.2 hPa | 0 mm | - | 17 W/m² | - |
| 1777946027 | 17.78° C | 38% | 992.1 hPa | 0 mm | - | 20 W/m² | - |
| 1777945724 | 18.33° C | 38% | 992.4 hPa | 0 mm | - | 23 W/m² | - |
| 1777945421 | 18.89° C | 37% | 992.1 hPa | 0 mm | - | 39 W/m² | - |
| 1777945118 | 20° C | 30% | 992.5 hPa | 0 mm | - | 47 W/m² | - |
* Rain latest hour (hover to see other rain measurements)
** Current wind speed in m/s (hover to see current wind gust speed)